Regional Weather Roundup
Issued by NWS

Home | Current Version | Previous Version | Text Only | Print | Product List | Glossary Off
Versions: 1 2 3 4 5 6 7 8 9 10 11 12 13 14 15 16 17 18 19 20 21 22 23 24 25 26 27 28 29 30 31 32 33 34 35 36 37 38 39 40 41 42 43 44 45 46 47 48 49 50

000
ASUS44 KMEG 040210
RWRTN
TENNESSEE HOURLY STATE WEATHER ROUNDUP
NATIONAL WEATHER SERVICE MEMPHIS TN
900 PM CDT FRI JUL 03 2015

TNZ002-004-019-021-049-052-054-088>092-040300-
WEST TENNESSEE

CITY           SKY/WX    TMP DP  RH WIND       PRES   REMARKS
MEMPHIS INTL   CLOUDY    75  70  84 W7        29.89R
NWS MEMPHIS      N/A     74 N/A N/A MISG        N/A
JACKSON        CLOUDY    73  71  93 SW6       29.89F
DYERSBURG        N/A    N/A N/A N/A MISG        N/A
PARIS          MOCLDY    70  68  94 CALM      29.90R
LEXINGTON      MOCLDY    72  70  94 S3        29.90F
$$

TNZ008-025-027-028-033-062-065-066-040300-
NORTH MIDDLE TENNESSEE

CITY           SKY/WX    TMP DP  RH WIND       PRES   REMARKS
NASHVILLE      CLOUDY    74  68  81 SW3       29.91F
CLARKSVILLE    MOCLDY    73  68  84 W5        29.89S
SMYRNA         CLOUDY    74  68  81 VRB7      29.92F
COOKEVILLE     CLEAR     72  68  88 SW5       29.93S
CROSSVILLE     MOCLDY    70  63  78 SW3       29.98R
$$

TNZ061-075-076-078-094-096-097-040300-
SOUTH MIDDLE TENNESSEE

CITY           SKY/WX    TMP DP  RH WIND       PRES   REMARKS
FAYETTEVILLE   CLOUDY    70  68  94 SW5       29.97S
TULLAHOMA      MOCLDY    68  66  94 SW6       29.98S
WINCHESTER     CLOUDY    70  66  88 S3        29.98S
MCMINNVILLE    PTCLDY    72  70  94 SW5       29.95S
COLUMBIA       CLOUDY    73  70  88 SW5       29.92F
SHELBYVILLE    PTCLDY    72  70  94 S3          N/A
$$

TNZ017-018-042-046-047-040300-
NORTHEAST TENNESSEE

CITY           SKY/WX    TMP DP  RH WIND       PRES   REMARKS
TRI CITIES     CLOUDY    71  68  90 SW10      29.95R
ELIZABETHTON   CLOUDY    70  66  88 W7        29.96R
$$

TNZ012-013-036-069-073-074-040300-
CENTRAL EAST TENNESSEE

CITY           SKY/WX    TMP DP  RH WIND       PRES   REMARKS
KNOXVILLE      CLOUDY    73  67  81 SW12      29.94R
OAK RIDGE      MOCLDY    74  68  81 SW3       29.95R
GATLINBURG     MOCLDY    72  66  83 SW5       29.94R
MORRISTOWN     PTCLDY    73  68  83 SW9       29.95S
$$

TNZ083-085-099-040300-
SOUTHEAST TENNESSEE

CITY           SKY/WX    TMP DP  RH WIND       PRES   REMARKS
CHATTANOOGA    CLOUDY    74  66  76 SW8       29.98R
$$

SKY/WX REPORTED AS FAIR MEANS FEW OR NO CLOUDS BELOW
12 THOUSAND FEET.




USA.gov is the U.S. government's official web portal to all federal, state and local government web resources and services.